This is the latest recevied weather packets stored in our database for station/object KD8ZLZ. If no packets are shown the sender has not sent any weather packets the latest 10 day(s).
| Time | Temp. | Humidity | Pressure | Rain* | Wind** | Luminosity | Snow |
|---|---|---|---|---|---|---|---|
| 1777767632 | 8.89° C | 45% | 1016.7 hPa | 0 mm | - | - | - |
| 1777767031 | 8.89° C | 43% | 1016.8 hPa | 0 mm | - | - | - |
| 1777766131 | 8.89° C | 42% | 1016.7 hPa | 0 mm | - | - | - |
| 1777764931 | 8.89° C | 41% | 1016.6 hPa | 0 mm | - | - | - |
| 1777761351 | 9.44° C | 40% | 1016.7 hPa | 0 mm | - | - | - |
| 1777760431 | 8.89° C | 41% | 1016.7 hPa | 0 mm | - | - | - |
| 1777759831 | 8.89° C | 39% | 1016.7 hPa | 0 mm | - | - | - |
| 1777759252 | 9.44° C | 40% | 1016.7 hPa | 0 mm | - | - | - |
| 1777754732 | 9.44° C | 39% | 1017 hPa | 0 mm | - | - | - |
| 1777753231 | 8.89° C | 38% | 1017.4 hPa | 0 mm | - | - | - |
| 1777748731 | 8.89° C | 38% | 1018 hPa | 0 mm | - | - | - |
| 1777748131 | 8.89° C | 40% | 1018.1 hPa | 0 mm | - | - | - |
| 1777747831 | 8.89° C | 39% | 1018.1 hPa | 0 mm | - | - | - |
| 1777746931 | 8.33° C | 40% | 1018 hPa | 0 mm | - | - | - |
| 1777746631 | 8.33° C | 39% | 1018.1 hPa | 0 mm | - | - | - |
| 1777744832 | 8.33° C | 39% | 1018.4 hPa | 0 mm | - | - | - |
| 1777743951 | 7.78° C | 40% | 1018.5 hPa | 0 mm | - | - | - |
| 1777742431 | 8.33° C | 41% | 1018.5 hPa | 0 mm | - | - | - |
| 1777741531 | 7.78° C | 42% | 1018.8 hPa | 0 mm | - | - | - |
| 1777737031 | 7.22° C | 42% | - | 0 mm | - | - | - |
| 1777734331 | 6.67° C | 48% | - | 0 mm | - | - | - |
| 1777734032 | 7.22° C | 50% | - | 0 mm | - | - | - |
| 1777731931 | 6.11° C | 52% | - | 0 mm | - | - | - |
| 1777731331 | 6.11° C | 49% | - | 0 mm | - | - | - |
| 1777670131 | 10° C | 49% | 1014.5 hPa | - | - | - | - |
* Rain latest hour (hover to see other rain measurements)
** Current wind speed in m/s (hover to see current wind gust speed)